Voltar ao catálogo

FENGYUN 1C DEB

AtivoPO
NORAD 32207·DEBRIS·🇨🇳 China

Lançado May 10, 1999 de Taiyuan Satellite Launch Center

Loading…

Próximas Passagens (próximas 24 horas)

TLE

EnvelhecendoSource: Space-Track

Época: Sep 5, 2026, 18:59 UTC

1 32207U 99025CVD 26248.79109786  .00000457  00000-0  15634-3 0  9996
2 32207  99.8797 253.0961 0085264  92.0242  81.8670 14.40147173681507

Acompanhe FENGYUN 1C DEB em tempo real com AllMySat

Download on the App Store